Regional Weather Roundup
Issued by NWS

Home | Current Version | Previous Version | Graphics & Text | Print | Product List | Glossary On
Versions: 1 2 3 4 5 6 7 8 9 10 11 12 13 14 15 16 17 18 19 20 21 22 23 24 25 26 27
000
ASUS45 KSLC 181310
RWRUT

UTAH REGIONAL WEATHER ROUNDUP
NATIONAL WEATHER SERVICE SALT LAKE CITY UT
700 AM MDT WED OCT 18 2017

UTZ001>011-023>025-181400-

NORTHERN UTAH

CITY           SKY/WX    TMP DP  RH WIND       PRES   REMARKS
BRIGHAM CITY   CLEAR     32  26  77 CALM      30.19S
HILL AFB       CLEAR     46  14  28 SE21      30.18R
LOGAN          CLEAR     29  23  78 NE3       30.20R
OGDEN          CLEAR     43  19  38 S8        30.17R
SALT LAKE CITY PTCLDY    41  33  73 CALM      30.18R
TOOELE VALLEY  PTCLDY    32  28  86 S3        30.19R
WENDOVER       PTCLDY    36  21  54 E7        30.19R WCI  30
WEST JORDAN    PTCLDY    37  26  65 CALM      30.20R

$$

UTZ011>015-024>027-181400-

CENTRAL/NORTHEAST UTAH

CITY           SKY/WX    TMP DP  RH WIND       PRES   REMARKS
PROVO AIRPORT  CLEAR     34  25  69 CALM      30.20R
MOAB/CANYONLAN MOCLDY    43  14  31 CALM      30.17S
DELTA          MOCLDY    32  23  69 W6        30.17R WCI  26
PRICE          MOCLDY    39  11  31 N9        30.22R WCI  33
RICHFIELD      CLEAR     32  21  64 CALM      30.22S
ROOSEVELT      CLOUDY    30  21  69 W5        30.24R WCI  25
VERNAL         CLOUDY    36  16  44 W7        30.20S WCI  30

$$

UTZ013>016-019>022-027-181400-

SOUTHERN UTAH

CITY           SKY/WX    TMP DP  RH WIND       PRES   REMARKS
BRYCE CANYON   CLOUDY    36  18  48 N3        30.31R
CEDAR CITY     PTCLDY    37  18  46 SW8       30.19R WCI  31
MILFORD        MOCLDY    36  17  46 CALM      30.18R
ST GEORGE      SUNNY     53  22  29 CALM      30.09R
HANKSVILLE     MOCLDY    34  18  51 CALM      30.21R
KANAB          CLEAR     41  21  45 NE5       30.21S
BLANDING         N/A     39  12  32 NW5       30.31R

$$

REGIONAL REPORTS     COLORADO/ARIZONA

CITY           SKY/WX    TMP DP  RH WIND       PRES   REMARKS
CRAIG, CO      CLOUDY    22  15  75 CALM      30.26R
GRAND JUNCTION CLOUDY    40  15  36 E7        30.21S
RIFLE, CO      CLOUDY    32  18  56 N3        30.27S
MONTROSE, CO   CLOUDY    33  15  47 S9        30.28R WCI  25
CORTEZ, CO     CLOUDY    29  16  58 NE6       30.26R WCI  23
COLORADO CITY    N/A     39  27  60 SE5       30.19S
PAGE, AZ       MOCLDY    53  20  27 CALM      30.14S
GRAND CANYON   CLEAR     32  18  56 CALM      30.26S
KINGMAN, AZ    CLEAR     54  25  32 S5        30.06R
FLAGSTAFF, AZ  CLEAR     35  22  58 CALM      30.29R

$$

REGIONAL REPORTS    NEVADA/IDAHO/WYOMING

CITY           SKY/WX    TMP DP  RH WIND       PRES   REMARKS
LAS VEGAS, NV  PTCLDY    62  17  17 SW5       30.00S
ELY, NY        MOCLDY    30   1  29 S15       30.25R WCI  19
ELKO, NV       CLOUDY    29  13  51 NE5       30.24R WCI  24
POCATELLO, ID  CLOUDY    35  28  75 E3        30.16F
BURLEY, ID     CLEAR     39  22  50 W5        30.15R
FORT BRIDGER,    N/A     44   6  20 SW12      30.29R
EVANSTON, WY   CLOUDY    43   7  22 S5        30.27R
ROCK SPRINGS,  CLOUDY    38   5  25 E5        30.25R WCI  34
KEMMERER, WY   CLOUDY    32  10  40 N3        30.26S

$$




USA.gov is the U.S. government's official web portal to all federal, state and local government web resources and services.